Time,TemperatureF,DewpointF,PressureIn,WindDirection,WindDirectionDegrees,WindSpeedMPH,WindSpeedGustMPH,Humidity,HourlyPrecipIn,Conditions,Clouds,dailyrainin,SoftwareType,DateUTC
2013-09-09 08:34:00,78.6,74.7,29.96,NE,46,0.2,13.8,88,0.00,BKN,,0.00,WeatherDisplay:10.37,2013-09-09 12:34:00,
2013-09-09 08:35:00,78.7,74.8,29.96,SSE,156,0.7,4.6,88,0.00,BKN,,0.00,WeatherDisplay:10.37,2013-09-09 12:35:00,
2013-09-09 08:40:00,79.2,75.0,29.96,SSE,162,1.2,3.5,87,0.00,BKN,,0.00,WeatherDisplay:10.37,2013-09-09 12:40:00,
2013-09-09 08:45:00,79.4,74.8,29.97,NNE,27,1.8,5.8,86,0.00,CLR,,0.00,WeatherDisplay:10.37,2013-09-09 12:45:00,
2013-09-09 08:50:00,79.6,75.0,29.97,SW,232,0.0,0.0,86,0.00,CLR,,0.00,WeatherDisplay:10.37,2013-09-09 12:50:00,
2013-09-09 08:55:00,79.6,74.7,29.97,NE,34,3.6,6.9,85,0.00,CLR,,0.00,WeatherDisplay:10.37,2013-09-09 12:55:00,
2013-09-09 09:00:00,79.8,75.2,29.96,ENE,72,1.8,3.5,86,0.00,CLR,,0.00,WeatherDisplay:10.37,2013-09-09 13:00:00,
2013-09-09 09:05:00,80.5,75.2,29.97,NE,51,3.3,5.8,84,0.00,CLR,,0.00,WeatherDisplay:10.37,2013-09-09 13:05:00,
2013-09-09 09:10:00,80.8,75.2,29.97,ENE,60,1.5,3.5,83,0.00,CLR,,0.00,WeatherDisplay:10.37,2013-09-09 13:10:00,
2013-09-09 09:15:00,81.0,75.3,29.97,NNE,20,1.6,5.8,83,0.00,CLR,,0.00,WeatherDisplay:10.37,2013-09-09 13:15:00,
2013-09-09 09:20:00,81.2,75.2,29.97,NE,34,1.2,3.5,82,0.00,CLR,,0.00,WeatherDisplay:10.37,2013-09-09 13:20:00,
2013-09-09 12:00:00,87.6,73.4,29.98,ENE,72,1.3,12.7,63,0.00,CLR,,0.00,WeatherDisplay:10.37,2013-09-09 16:00:00,
2013-09-09 12:05:00,86.9,73.7,29.98,East,98,2.3,3.5,65,0.00,SCT,,0.00,WeatherDisplay:10.37,2013-09-09 16:05:00,
2013-09-09 12:10:00,86.8,73.6,29.98,East,93,0.7,1.2,65,0.00,SCT,,0.00,WeatherDisplay:10.37,2013-09-09 16:10:00,
2013-09-09 12:15:00,87.0,73.8,29.98,NE,54,3.0,7.0,65,0.00,SCT,,0.00,WeatherDisplay:10.37,2013-09-09 16:15:00,
2013-09-09 12:20:00,87.1,73.4,29.98,NNE,22,5.2,10.4,64,0.00,SCT,,0.00,WeatherDisplay:10.37,2013-09-09 16:20:00,
2013-09-09 12:25:00,87.5,74.3,29.98,NE,54,3.8,8.1,65,0.00,SCT,,0.00,WeatherDisplay:10.37,2013-09-09 16:25:00,
2013-09-09 12:30:00,88.8,74.1,29.98,ESE,121,0.8,3.5,62,0.00,SCT,,0.00,WeatherDisplay:10.37,2013-09-09 16:30:00,
2013-09-09 12:35:00,89.6,74.4,29.98,ENE,60,1.8,4.6,61,0.00,SCT,,0.00,WeatherDisplay:10.37,2013-09-09 16:35:00,
2013-09-09 12:40:00,89.5,74.8,29.97,NE,46,1.9,6.9,62,0.00,SCT,,0.00,WeatherDisplay:10.37,2013-09-09 16:40:00,
2013-09-09 12:45:00,90.1,73.3,29.97,NE,50,3.4,5.0,58,0.00,SCT,,0.00,WeatherDisplay:10.37,2013-09-09 16:45:00,
2013-09-09 12:50:00,89.5,73.8,29.97,ESE,108,0.6,3.5,60,0.00,SCT,,0.00,WeatherDisplay:10.37,2013-09-09 16:50:00,
2013-09-09 12:55:00,89.8,73.0,29.98,ESE,115,3.7,6.9,58,0.00,SCT,,0.00,WeatherDisplay:10.37,2013-09-09 16:55:00,
2013-09-09 13:00:00,89.5,73.3,29.97,ESE,108,2.3,6.9,59,0.00,SCT,,0.00,WeatherDisplay:10.37,2013-09-09 17:00:00,
2013-09-09 13:05:00,88.9,73.2,29.97,ENE,75,2.5,5.0,60,0.00,SCT,,0.00,WeatherDisplay:10.37,2013-09-09 17:05:00,
2013-09-09 13:10:00,89.3,73.1,29.97,SSE,150,1.0,6.9,59,0.00,SCT,,0.00,WeatherDisplay:10.37,2013-09-09 17:10:00,
2013-09-09 13:15:00,89.9,73.7,29.97,NE,37,2.4,5.8,59,0.00,SCT,,0.00,WeatherDisplay:10.37,2013-09-09 17:15:00,
2013-09-09 13:20:00,90.1,73.8,29.97,NNW,335,0.7,3.5,59,0.00,SCT,,0.00,WeatherDisplay:10.37,2013-09-09 17:20:00,
2013-09-09 13:25:00,90.0,73.2,29.96,ENE,69,1.3,8.1,58,0.00,SCT,,0.00,WeatherDisplay:10.37,2013-09-09 17:25:00,
2013-09-09 13:30:00,89.6,73.4,29.96,North,358,2.3,4.6,59,0.00,SCT,,0.00,WeatherDisplay:10.37,2013-09-09 17:30:00,
2013-09-09 13:35:00,89.3,73.1,29.96,NE,39,7.8,12.0,59,0.00,SCT,,0.00,WeatherDisplay:10.37,2013-09-09 17:35:00,
2013-09-09 13:40:00,90.3,73.0,29.96,NNW,340,6.4,11.5,57,0.00,SCT,,0.00,WeatherDisplay:10.37,2013-09-09 17:40:00,
2013-09-09 13:45:00,90.4,73.6,29.96,ENE,72,6.1,12.7,58,0.00,SCT,,0.00,WeatherDisplay:10.37,2013-09-09 17:45:00,
2013-09-09 13:50:00,89.5,72.3,29.96,North,352,3.2,4.6,57,0.00,SCT,,0.00,WeatherDisplay:10.37,2013-09-09 17:50:00,
2013-09-09 13:55:00,89.8,73.0,29.95,NE,46,4.4,10.4,58,0.00,SCT,,0.00,WeatherDisplay:10.37,2013-09-09 17:55:00,
2013-09-09 14:00:00,90.0,73.2,29.95,East,88,0.7,1.2,58,0.00,SCT,,0.00,WeatherDisplay:10.37,2013-09-09 18:00:00,
2013-09-09 14:05:00,90.5,73.2,29.95,ESE,113,1.7,3.5,57,0.00,SCT,,0.00,WeatherDisplay:10.37,2013-09-09 18:05:00,
2013-09-09 14:10:00,90.7,72.8,29.95,SE,139,3.5,7.0,56,0.00,SCT,,0.00,WeatherDisplay:10.37,2013-09-09 18:10:00,
2013-09-09 14:15:00,91.0,73.7,29.95,West,277,2.6,9.2,57,0.00,FEW,,0.00,WeatherDisplay:10.37,2013-09-09 18:15:00,
2013-09-09 14:20:00,91.4,73.0,29.95,SE,146,2.2,5.8,55,0.00,FEW,,0.00,WeatherDisplay:10.37,2013-09-09 18:20:00,
2013-09-09 14:25:00,90.9,73.0,29.95,North,4,3.0,6.0,56,0.00,FEW,,0.00,WeatherDisplay:10.37,2013-09-09 18:25:00,
2013-09-09 14:30:00,91.0,72.6,29.95,NE,49,1.3,2.3,55,0.00,FEW,,0.00,WeatherDisplay:10.37,2013-09-09 18:30:00,
2013-09-09 14:35:00,91.8,72.8,29.94,NE,51,4.7,10.4,54,0.00,FEW,,0.00,WeatherDisplay:10.37,2013-09-09 18:35:00,
2013-09-09 14:40:00,91.4,71.3,29.94,NE,37,5.1,9.2,52,0.00,FEW,,0.00,WeatherDisplay:10.37,2013-09-09 18:40:00,
2013-09-09 14:45:00,90.7,71.8,29.94,NNE,30,4.7,8.1,54,0.00,FEW,,0.00,WeatherDisplay:10.37,2013-09-09 18:45:00,
2013-09-09 14:50:00,90.9,72.5,29.94,ENE,61,1.7,2.3,55,0.00,FEW,,0.00,WeatherDisplay:10.37,2013-09-09 18:50:00,
2013-09-09 14:55:00,91.2,72.8,29.93,East,79,3.1,11.5,55,0.00,FEW,,0.00,WeatherDisplay:10.37,2013-09-09 18:55:00,
2013-09-09 15:00:00,91.1,72.1,29.94,ENE,72,1.8,4.6,54,0.00,FEW,,0.00,WeatherDisplay:10.37,2013-09-09 19:00:00,
2013-09-09 15:05:00,90.7,71.8,29.93,ENE,66,0.3,4.6,54,0.00,SCT,,0.00,WeatherDisplay:10.37,2013-09-09 19:05:00,
2013-09-09 15:10:00,91.3,71.8,29.93,ENE,58,2.5,3.5,53,0.00,SCT,,0.00,WeatherDisplay:10.37,2013-09-09 19:10:00,
2013-09-09 15:15:00,92.3,71.6,29.93,SE,128,0.6,3.5,51,0.00,SCT,,0.00,WeatherDisplay:10.37,2013-09-09 19:15:00,
2013-09-09 15:20:00,92.4,72.2,29.93,North,355,0.6,3.5,52,0.00,SCT,,0.00,WeatherDisplay:10.37,2013-09-09 19:20:00,
2013-09-09 15:25:00,91.7,71.6,29.93,ENE,58,4.9,13.8,52,0.00,SCT,,0.00,WeatherDisplay:10.37,2013-09-09 19:25:00,
2013-09-09 15:30:00,91.1,71.0,29.93,NE,53,8.8,11.5,52,0.00,SCT,,0.00,WeatherDisplay:10.37,2013-09-09 19:30:00,
2013-09-09 15:35:00,91.2,71.1,29.93,ENE,58,2.9,8.1,52,0.00,SCT,,0.00,WeatherDisplay:10.37,2013-09-09 19:35:00,
2013-09-09 15:40:00,91.7,72.1,29.93,NE,53,1.8,3.5,53,0.00,SCT,,0.00,WeatherDisplay:10.37,2013-09-09 19:40:00,
2013-09-09 15:45:00,91.9,71.8,29.93,ENE,72,3.4,3.5,52,0.00,SCT,,0.00,WeatherDisplay:10.37,2013-09-09 19:45:00,
2013-09-09 15:50:00,91.5,72.5,29.92,WNW,290,0.8,2.3,54,0.00,SCT,,0.00,WeatherDisplay:10.37,2013-09-09 19:50:00,
2013-09-09 15:55:00,91.9,71.8,29.92,NNE,20,3.7,6.0,52,0.00,SCT,,0.00,WeatherDisplay:10.37,2013-09-09 19:55:00,
2013-09-09 16:00:00,91.9,72.9,29.92,NE,40,4.0,5.0,54,0.00,SCT,,0.00,WeatherDisplay:10.37,2013-09-09 20:00:00,
2013-09-09 16:05:00,91.6,72.0,29.92,North,358,2.7,3.5,53,0.00,FEW,,0.00,WeatherDisplay:10.37,2013-09-09 20:05:00,
2013-09-09 16:10:00,90.8,72.4,29.92,East,86,2.2,3.5,55,0.00,FEW,,0.00,WeatherDisplay:10.37,2013-09-09 20:10:00,
2013-09-09 16:15:00,90.5,71.6,29.92,ENE,68,3.5,5.8,54,0.00,FEW,,0.00,WeatherDisplay:10.37,2013-09-09 20:15:00,
2013-09-09 16:20:00,91.2,72.2,29.92,East,85,0.9,5.8,54,0.00,FEW,,0.00,WeatherDisplay:10.37,2013-09-09 20:20:00,
2013-09-09 16:25:00,92.2,71.5,29.92,East,98,2.9,3.5,51,0.00,FEW,,0.00,WeatherDisplay:10.37,2013-09-09 20:25:00,
2013-09-09 16:30:00,92.7,71.3,29.91,NE,41,6.5,10.4,50,0.00,FEW,,0.00,WeatherDisplay:10.37,2013-09-09 20:30:00,
2013-09-09 16:35:00,92.3,71.6,29.91,ENE,61,1.2,4.6,51,0.00,FEW,,0.00,WeatherDisplay:10.37,2013-09-09 20:35:00,
2013-09-09 16:40:00,92.8,72.0,29.91,NNE,19,1.5,1.5,51,0.00,FEW,,0.00,WeatherDisplay:10.37,2013-09-09 20:40:00,
2013-09-09 16:45:00,92.7,71.9,29.91,NNE,25,0.2,3.5,51,0.00,FEW,,0.00,WeatherDisplay:10.37,2013-09-09 20:45:00,
2013-09-09 16:50:00,92.7,71.3,29.91,NE,41,5.5,11.5,50,0.00,FEW,,0.00,WeatherDisplay:10.37,2013-09-09 20:50:00,
2013-09-09 16:55:00,91.8,71.1,29.91,NE,46,6.1,9.2,51,0.00,FEW,,0.00,WeatherDisplay:10.37,2013-09-09 20:55:00,
2013-09-09 17:00:00,91.3,71.2,29.91,ENE,72,1.7,3.5,52,0.00,FEW,,0.00,WeatherDisplay:10.37,2013-09-09 21:00:00,
2013-09-09 17:05:00,91.4,71.9,29.91,NE,43,1.4,5.0,53,0.00,SCT,,0.00,WeatherDisplay:10.37,2013-09-09 21:05:00,
2013-09-09 17:10:00,92.2,72.6,29.91,East,101,2.5,3.5,53,0.00,SCT,,0.00,WeatherDisplay:10.37,2013-09-09 21:10:00,
2013-09-09 17:15:00,92.3,71.6,29.91,NE,36,2.4,6.0,51,0.00,SCT,,0.00,WeatherDisplay:10.37,2013-09-09 21:15:00,
2013-09-09 17:20:00,92.7,71.9,29.91,SE,130,1.2,3.5,51,0.00,SCT,,0.00,WeatherDisplay:10.37,2013-09-09 21:20:00,
2013-09-09 17:25:00,92.7,71.9,29.91,NNW,343,3.6,10.4,51,0.00,SCT,,0.00,WeatherDisplay:10.37,2013-09-09 21:25:00,
2013-09-09 17:30:00,92.5,71.7,29.91,ESE,113,1.0,6.0,51,0.00,SCT,,0.00,WeatherDisplay:10.37,2013-09-09 21:30:00,
2013-09-09 17:35:00,92.6,71.2,29.91,NNW,343,1.3,4.6,50,0.00,SCT,,0.00,WeatherDisplay:10.37,2013-09-09 21:35:00,
2013-09-09 17:40:00,92.5,71.7,29.91,North,4,1.6,8.1,51,0.00,SCT,,0.00,WeatherDisplay:10.37,2013-09-09 21:40:00,
2013-09-09 17:45:00,92.8,71.4,29.91,NE,36,0.9,6.9,50,0.00,SCT,,0.00,WeatherDisplay:10.37,2013-09-09 21:45:00,
2013-09-09 17:50:00,92.4,71.1,29.91,NW,314,2.0,5.8,50,0.00,SCT,,0.00,WeatherDisplay:10.37,2013-09-09 21:50:00,
2013-09-09 17:55:00,92.3,71.6,29.91,NE,53,0.8,8.1,51,0.00,SCT,,0.00,WeatherDisplay:10.37,2013-09-09 21:55:00,
2013-09-09 18:00:00,92.2,70.9,29.91,NE,44,3.3,4.0,50,0.00,SCT,,0.00,WeatherDisplay:10.37,2013-09-09 22:00:00,
2013-09-09 18:05:00,91.9,70.6,29.91,NNE,32,4.8,9.2,50,0.00,FEW,,0.00,WeatherDisplay:10.37,2013-09-09 22:05:00,
2013-09-09 18:10:00,91.1,70.5,29.90,NE,41,4.3,5.8,51,0.00,FEW,,0.00,WeatherDisplay:10.37,2013-09-09 22:10:00,
2013-09-09 18:15:00,90.6,71.1,29.90,ENE,58,2.8,4.6,53,0.00,FEW,,0.00,WeatherDisplay:10.37,2013-09-09 22:15:00,
2013-09-09 18:20:00,90.8,71.3,29.90,ESE,108,0.4,2.3,53,0.00,FEW,,0.00,WeatherDisplay:10.37,2013-09-09 22:20:00,
2013-09-09 18:25:00,91.2,71.1,29.90,NE,56,1.6,4.0,52,0.00,FEW,,0.00,WeatherDisplay:10.37,2013-09-09 22:25:00,
2013-09-09 18:30:00,91.1,71.0,29.90,NE,39,1.4,9.2,52,0.00,FEW,,0.00,WeatherDisplay:10.37,2013-09-09 22:30:00,
2013-09-09 18:35:00,90.7,69.5,29.91,NE,50,2.5,5.8,50,0.00,FEW,,0.00,WeatherDisplay:10.37,2013-09-09 22:35:00,
2013-09-09 18:40:00,90.2,70.2,29.91,NE,41,1.9,3.5,52,0.00,FEW,,0.00,WeatherDisplay:10.37,2013-09-09 22:40:00,
2013-09-09 18:45:00,89.9,70.5,29.91,NW,313,2.5,5.8,53,0.00,FEW,,0.00,WeatherDisplay:10.37,2013-09-09 22:45:00,
2013-09-09 18:50:00,89.7,70.8,29.91,NE,43,3.0,6.0,54,0.00,FEW,,0.00,WeatherDisplay:10.37,2013-09-09 22:50:00,
2013-09-09 18:55:00,89.4,71.1,29.91,SW,214,1.6,3.5,55,0.00,FEW,,0.00,WeatherDisplay:10.37,2013-09-09 22:55:00,
2013-09-09 19:00:00,88.8,71.6,29.91,ESE,103,1.0,3.5,57,0.00,FEW,,0.00,WeatherDisplay:10.37,2013-09-09 23:00:00,
2013-09-09 19:05:00,88.3,72.2,29.92,ESE,103,1.5,4.6,59,0.00,SCT,,0.00,WeatherDisplay:10.37,2013-09-09 23:05:00,
2013-09-09 19:10:00,87.9,71.8,29.92,East,83,1.8,3.0,59,0.00,SCT,,0.00,WeatherDisplay:10.37,2013-09-09 23:10:00,
2013-09-09 19:15:00,87.7,72.1,29.92,ESE,115,1.2,4.6,60,0.00,SCT,,0.00,WeatherDisplay:10.37,2013-09-09 23:15:00,
2013-09-09 19:20:00,87.5,72.4,29.92,SE,140,0.4,3.5,61,0.00,SCT,,0.00,WeatherDisplay:10.37,2013-09-09 23:20:00,
2013-09-09 19:25:00,87.3,72.2,29.93,East,89,0.4,3.5,61,0.00,SCT,,0.00,WeatherDisplay:10.37,2013-09-09 23:25:00,
2013-09-09 19:30:00,87.0,72.4,29.93,SE,127,0.5,3.5,62,0.00,SCT,,0.00,WeatherDisplay:10.37,2013-09-09 23:30:00,
2013-09-09 19:35:00,86.8,72.2,29.93,East,94,1.2,3.0,62,0.00,SCT,,0.00,WeatherDisplay:10.37,2013-09-09 23:35:00,
2013-09-09 19:40:00,86.5,72.4,29.93,ENE,65,0.7,0.0,63,0.00,SCT,,0.00,WeatherDisplay:10.37,2013-09-09 23:40:00,
2013-09-09 19:45:00,86.2,72.1,29.93,ESE,103,0.0,1.2,63,0.00,SCT,,0.00,WeatherDisplay:10.37,2013-09-09 23:45:00,
2013-09-09 19:50:00,86.0,71.9,29.93,ESE,121,1.8,5.8,63,0.00,SCT,,0.00,WeatherDisplay:10.37,2013-09-09 23:50:00,
2013-09-09 19:55:00,85.8,71.7,29.93,NW,309,0.5,2.3,63,0.00,SCT,,0.00,WeatherDisplay:10.37,2013-09-09 23:55:00,
2013-09-09 20:00:00,85.7,71.7,29.93,SE,136,0.5,3.5,63,0.00,SCT,,0.00,WeatherDisplay:10.37,2013-09-10 00:00:00,
2013-09-09 20:05:00,85.5,71.5,29.93,East,91,0.6,4.0,63,0.00,CLR,,0.00,WeatherDisplay:10.37,2013-09-10 00:05:00,
2013-09-09 20:10:00,85.4,71.4,29.93,NNW,338,0.1,1.2,63,0.00,CLR,,0.00,WeatherDisplay:10.37,2013-09-10 00:10:00,
2013-09-09 20:15:00,85.3,71.3,29.93,ESE,102,0.3,3.5,63,0.00,CLR,,0.00,WeatherDisplay:10.37,2013-09-10 00:15:00,
2013-09-09 20:20:00,85.3,71.3,29.94,NE,44,0.0,1.2,63,0.00,CLR,,0.00,WeatherDisplay:10.37,2013-09-10 00:20:00,
2013-09-09 20:25:00,85.1,71.1,29.94,ESE,114,0.5,2.3,63,0.00,SCT,,0.00,WeatherDisplay:10.37,2013-09-10 00:25:00,
2013-09-09 20:30:00,84.9,70.9,29.94,NE,39,0.9,5.8,63,0.00,SCT,,0.00,WeatherDisplay:10.37,2013-09-10 00:30:00,
2013-09-09 20:35:00,84.9,70.9,29.94,ESE,107,0.4,1.0,63,0.00,SCT,,0.00,WeatherDisplay:10.37,2013-09-10 00:35:00,
2013-09-09 20:40:00,84.7,70.7,29.95,ENE,77,0.1,2.3,63,0.00,SCT,,0.00,WeatherDisplay:10.37,2013-09-10 00:40:00,
2013-09-09 20:45:00,84.5,71.0,29.95,NE,49,1.5,0.0,64,0.00,SCT,,0.00,WeatherDisplay:10.37,2013-09-10 00:45:00,
2013-09-09 20:50:00,84.4,71.3,29.95,East,82,1.4,4.6,65,0.00,SCT,,0.00,WeatherDisplay:10.37,2013-09-10 00:50:00,
2013-09-09 20:55:00,84.3,71.2,29.95,ESE,115,2.3,8.1,65,0.00,SCT,,0.00,WeatherDisplay:10.37,2013-09-10 00:55:00,
2013-09-09 21:00:00,84.3,71.7,29.95,NE,53,0.9,2.3,66,0.00,SCT,,0.00,WeatherDisplay:10.37,2013-09-10 01:00:00,
2013-09-09 21:05:00,84.1,72.0,29.95,ESE,110,3.6,9.2,67,0.00,FEW,,0.00,WeatherDisplay:10.37,2013-09-10 01:05:00,
2013-09-09 21:10:00,83.8,72.1,29.95,ESE,119,2.9,6.9,68,0.00,FEW,,0.00,WeatherDisplay:10.37,2013-09-10 01:10:00,
2013-09-09 21:15:00,83.6,72.3,29.96,ESE,112,1.1,3.5,69,0.00,FEW,,0.00,WeatherDisplay:10.37,2013-09-10 01:15:00,
2013-09-09 21:20:00,83.4,72.2,29.96,East,94,1.8,4.6,69,0.00,FEW,,0.00,WeatherDisplay:10.37,2013-09-10 01:20:00,
2013-09-09 21:25:00,83.2,72.4,29.96,ESE,108,0.9,2.3,70,0.00,FEW,,0.00,WeatherDisplay:10.37,2013-09-10 01:25:00,
2013-09-09 21:30:00,83.1,72.3,29.97,ENE,60,3.1,5.8,70,0.00,FEW,,0.00,WeatherDisplay:10.37,2013-09-10 01:30:00,
2013-09-09 21:35:00,83.0,72.2,29.97,East,80,1.8,6.9,70,0.00,FEW,,0.00,WeatherDisplay:10.37,2013-09-10 01:35:00,
2013-09-09 21:40:00,82.9,72.5,29.97,ENE,75,2.7,4.6,71,0.00,FEW,,0.00,WeatherDisplay:10.37,2013-09-10 01:40:00,
2013-09-09 21:45:00,82.9,72.5,29.98,SE,141,0.9,3.5,71,0.00,FEW,,0.00,WeatherDisplay:10.37,2013-09-10 01:45:00,
2013-09-09 21:50:00,82.9,72.5,29.98,ENE,71,0.8,3.5,71,0.00,FEW,,0.00,WeatherDisplay:10.37,2013-09-10 01:50:00,
2013-09-09 21:55:00,82.9,72.9,29.98,SE,143,2.2,3.5,72,0.00,FEW,,0.00,WeatherDisplay:10.37,2013-09-10 01:55:00,
2013-09-09 22:00:00,82.8,72.8,29.98,ESE,115,0.0,1.2,72,0.00,FEW,,0.00,WeatherDisplay:10.37,2013-09-10 02:00:00,
2013-09-09 22:05:00,82.7,72.7,29.98,East,86,1.2,8.1,72,0.00,CLR,,0.00,WeatherDisplay:10.37,2013-09-10 02:05:00,
2013-09-09 22:10:00,82.6,73.1,29.98,ESE,114,0.4,4.6,73,0.00,CLR,,0.00,WeatherDisplay:10.37,2013-09-10 02:10:00,
2013-09-09 22:15:00,82.4,73.3,29.98,ESE,113,0.2,1.2,74,0.00,CLR,,0.00,WeatherDisplay:10.37,2013-09-10 02:15:00,
2013-09-09 22:20:00,82.2,73.1,29.98,SSE,155,0.2,3.5,74,0.00,CLR,,0.00,WeatherDisplay:10.37,2013-09-10 02:20:00,
2013-09-09 22:25:00,82.1,73.0,29.98,ESE,102,0.1,4.6,74,0.00,CLR,,0.00,WeatherDisplay:10.37,2013-09-10 02:25:00,
2013-09-09 22:30:00,81.9,72.8,29.98,NNE,29,2.9,9.2,74,0.00,CLR,,0.00,WeatherDisplay:10.37,2013-09-10 02:30:00,
2013-09-09 22:35:00,81.7,73.0,29.98,East,99,0.7,5.8,75,0.00,CLR,,0.00,WeatherDisplay:10.37,2013-09-10 02:35:00,
2013-09-09 22:40:00,81.6,72.9,29.98,NW,305,1.6,4.6,75,0.00,CLR,,0.00,WeatherDisplay:10.37,2013-09-10 02:40:00,
2013-09-09 22:45:00,81.5,73.2,29.99,SE,134,2.3,5.8,76,0.00,CLR,,0.00,WeatherDisplay:10.37,2013-09-10 02:45:00,
2013-09-09 22:50:00,81.3,73.0,29.99,NE,56,2.0,3.5,76,0.00,CLR,,0.00,WeatherDisplay:10.37,2013-09-10 02:50:00,
2013-09-09 22:55:00,81.2,73.3,29.99,SSE,163,0.3,6.9,77,0.00,CLR,,0.00,WeatherDisplay:10.37,2013-09-10 02:55:00,
2013-09-09 23:00:00,81.0,73.1,29.99,East,85,0.5,4.6,77,0.00,CLR,,0.00,WeatherDisplay:10.37,2013-09-10 03:00:00,
2013-09-09 23:05:00,80.8,73.3,30.00,ESE,105,3.2,6.0,78,0.00,CLR,,0.00,WeatherDisplay:10.37,2013-09-10 03:05:00,
2013-09-09 23:10:00,80.6,73.1,30.00,ENE,70,0.5,3.5,78,0.00,CLR,,0.00,WeatherDisplay:10.37,2013-09-10 03:10:00,
2013-09-09 23:15:00,80.5,73.4,30.00,East,98,0.5,2.3,79,0.00,CLR,,0.00,WeatherDisplay:10.37,2013-09-10 03:15:00,
2013-09-09 23:20:00,80.4,73.3,30.00,ESE,106,0.4,5.0,79,0.00,CLR,,0.00,WeatherDisplay:10.37,2013-09-10 03:20:00,
2013-09-09 23:25:00,80.2,73.5,30.00,ESE,117,0.8,2.3,80,0.00,CLR,,0.00,WeatherDisplay:10.37,2013-09-10 03:25:00,
2013-09-09 23:30:00,80.1,73.4,30.00,East,88,1.0,3.0,80,0.00,CLR,,0.00,WeatherDisplay:10.37,2013-09-10 03:30:00,
2013-09-09 23:35:00,79.8,73.1,30.00,East,91,1.5,5.8,80,0.00,CLR,,0.00,WeatherDisplay:10.37,2013-09-10 03:35:00,
2013-09-09 23:40:00,79.7,73.3,30.00,ENE,74,1.1,2.3,81,0.00,CLR,,0.00,WeatherDisplay:10.37,2013-09-10 03:40:00,
2013-09-09 23:45:00,79.6,73.3,30.00,ENE,58,1.1,2.3,81,0.00,CLR,,0.00,WeatherDisplay:10.37,2013-09-10 03:45:00,
2013-09-09 23:50:00,79.5,73.2,30.00,East,79,2.3,2.3,81,0.00,CLR,,0.00,WeatherDisplay:10.37,2013-09-10 03:50:00,
2013-09-09 23:55:00,79.3,73.3,30.00,NE,47,0.1,3.5,82,0.00,CLR,,0.00,WeatherDisplay:10.37,2013-09-10 03:55:00,